Погода в Юдино

Россия / Московская область     55°39′30″N   37°11′11″E
темп.,
°C
ветер,
м/с
пор.,
м/с
влажн.,
%
обл.,
%
осадки,
мм/ч
давл.,
гПа
погр.,
м
21 апреля, ср
ср2100:00+3всв3897100 0.8 1012528
03:00+3св3797100 1.6 1008458
06:00+2ссв2498100 1.9 1004248
09:00+2зюз2399100 3.7 1004249
12:00+3зюз4790100 0.1 1005798
15:00+4зюз4681100 0.1 1007991
18:00+5юз3783100 0.1 1008606
21:00+4ююз3786100 0.1 1010278
22 апреля, чт
чт2200:00+4юз3792100 0.1 1011285
03:00+4ююз399080 0.1 1012323
06:00+3ююз4109350 0.0 1013339
09:00+7ююз5980100 0.0 1013572
12:00+10ююз577090 0.0 1014958
15:00+12ююз675958 0.1 10141411
18:00+12ю486440 0.0 1014980
21:00+10ююв4118195 0.6 1014447
23 апреля, пт
пт2300:00+8ю4118864 0.5 1014391
03:00+7ю4129246 0.5 1014354
06:00+7ю5148813 0.0 1013473
09:00+11ю5136963 0.1 10131008
12:00+15ю8155393 0.6 10122022
15:00+13юз61270100 2.2 10121561
18:00+8з3583100 1.6 1013566
21:00+7зсз1288100 5.6 1012314
24 апреля, сб
сб2400:00+5сз3491100 6.4 1010265
03:00+3зсз3797100 14.3 1009468
06:00+3з2696100 5.0 1008536
09:00+4з3696100 6.5 1008531
12:00+7з466299 0.9 10081464
15:00+9зюз674492 1.0 10081883
18:00+8зюз57438 0.1 10071753
21:00+5зюз38645 0.1 1009436
25 апреля, вс
вс2500:00+3зюз49715 0.0 1008384
03:00+1зюз49855 0.0 1009391
06:00+1зюз498814 0.0 1009410
09:00+4зюз586041 0.0 10091174
12:00+7зюз6844100 0.1 10092002
15:00+7з6849100 0.7 10091674
18:00+5зюз575825 0.4 10101275
21:00+3зюз38675 0.4 1011553